This is the latest recevied weather packets stored in our database for station/object F4IEI-10. If no packets are shown the sender has not sent any weather packets the latest 10 day(s).
| Time | Temp. | Humidity | Pressure | Rain* | Wind** | Luminosity | Snow |
|---|---|---|---|---|---|---|---|
| 1777795117 | 13.89° C | 98% | 1012.2 hPa | - | - | - | - |
| 1777794217 | 13.89° C | 98% | 1012.2 hPa | - | - | - | - |
| 1777793317 | 13.89° C | 94% | 1012.2 hPa | - | - | - | - |
| 1777792417 | 13.89° C | 94% | 1012.2 hPa | - | - | - | - |
| 1777791517 | 13.33° C | 94% | 1012.1 hPa | - | - | - | - |
| 1777790624 | 13.33° C | 95% | 1012.1 hPa | - | - | - | - |
| 1777789717 | 12.78° C | 90% | 1012.1 hPa | - | - | - | - |
| 1777788817 | 12.78° C | 87% | 1012.1 hPa | - | - | - | - |
| 1777787917 | 12.78° C | 91% | 1012 hPa | - | - | - | - |
| 1777787017 | 12.78° C | 92% | 1012.1 hPa | - | - | - | - |
| 1777786117 | 13.33° C | 98% | 1012 hPa | - | - | - | - |
| 1777785217 | 13.33° C | 95% | 1012 hPa | - | - | - | - |
| 1777784317 | 13.33° C | 95% | 1012 hPa | - | - | - | - |
| 1777783417 | 13.33° C | 91% | 1011.9 hPa | - | - | - | - |
| 1777782518 | 13.33° C | 100% | 1012 hPa | - | - | - | - |
| 1777781617 | 13.33° C | 100% | 1012 hPa | - | - | - | - |
| 1777780717 | 13.89° C | 100% | 1012 hPa | - | - | - | - |
| 1777779817 | 13.89° C | 100% | 1012 hPa | - | - | - | - |
| 1777778917 | 14.44° C | 77% | 1012.2 hPa | - | - | - | - |
| 1777778017 | 14.44° C | 79% | 1012.1 hPa | - | - | - | - |
| 1777777117 | 14.44° C | 87% | 1012 hPa | - | - | - | - |
| 1777776217 | 14.44° C | 81% | 1012 hPa | - | - | - | - |
| 1777775317 | 15° C | 83% | 1011.9 hPa | - | - | - | - |
| 1777774417 | 15° C | 83% | 1012 hPa | - | - | - | - |
| 1777773517 | 15° C | 85% | 1012.1 hPa | - | - | - | - |
* Rain since midnight (hover to see other rain measurements)
** Current wind speed in m/s (hover to see current wind gust speed)